Location: Hickory_CSC
(35.7330°N, 81.3330°W)
Time: 00:56:01
(UTC-04:00)

ISS - All Passes

Search period start: 30 September 2016 00:00
Search period end: 10 October 2016 00:00
Orbit: 400 x 409 km, 51.6° (Epoch: 30 September)

Date Brightness Start Highest point End Pass type
(mag) Time Alt. Az. Time Alt. Az. Time Alt. Az.
30 Sep - 02:18:41 10° NNW 02:21:18 22° NNE 02:23:56 10° E night (unlit)
30 Sep - 03:54:49 10° WNW 03:57:51 35° SW 04:00:52 10° SSE night (unlit)
30 Sep - 18:56:33 10° S 18:59:18 26° SE 19:02:04 10° ENE daylight
30 Sep - 20:32:56 10° W 20:35:44 26° NNW 20:38:32 10° NNE visible
01 Oct - 01:27:06 10° N 01:28:56 14° NNE 01:30:45 10° ENE night (unlit)
01 Oct - 03:02:29 10° NW 03:05:46 79° SW 03:09:02 10° SE night (unlit)
01 Oct - 18:05:49 10° SSE 18:07:19 13° SE 18:08:51 10° E daylight
01 Oct - 19:40:19 10° WSW 19:43:28 48° NW 19:46:38 10° NE visible
02 Oct - 02:10:23 10° NW 02:13:35 48° NE 02:16:46 10° ESE night (unlit)
02 Oct - 03:48:07 10° W 03:49:44 13° SW 03:51:21 10° SSW night (unlit)
02 Oct - 18:48:04 10° SW 18:51:17 78° SE 18:54:32 10° NE daylight
02 Oct - 20:26:19 10° WNW 20:28:07 14° NNW 20:29:54 10° N visible
03 Oct - 01:18:29 10° NNW 01:21:18 26° NNE 01:24:07 10° E night (unlit)
03 Oct - 02:54:55 10° WNW 02:57:44 26° SW 03:00:33 10° S night (unlit)
03 Oct - 17:56:12 10° SSW 17:59:10 34° SE 18:02:09 10° ENE daylight
03 Oct - 19:33:06 10° W 19:35:42 22° NNW 19:38:18 10° NNE visible
04 Oct - 00:26:45 10° NNW 00:28:55 16° NNE 00:31:05 10° ENE night (unlit)
04 Oct - 02:02:25 10° NW 02:05:39 58° SW 02:08:52 10° SE night (unlit)
04 Oct - 17:05:00 10° S 17:07:08 16° SE 17:09:16 10° E daylight
04 Oct - 18:40:19 10° WSW 18:43:22 38° NW 18:46:26 10° NNE daylight
04 Oct - 23:35:32 10° N 23:36:27 11° NNE 23:37:20 10° NE night (unlit)
05 Oct - 01:10:12 10° NW 01:13:27 63° NE 01:16:43 10° ESE night (unlit)
05 Oct - 17:47:53 10° SW 17:51:07 79° NW 17:54:22 10° NE daylight
05 Oct - 19:26:42 10° NW 19:28:03 12° NNW 19:29:24 10° N visible
06 Oct - 00:18:11 10° NNW 00:21:11 32° NE 00:24:09 10° E night (unlit)
06 Oct - 01:55:00 10° W 01:57:31 20° SW 02:00:01 10° S night (unlit)
06 Oct - 16:55:50 10° SSW 16:58:57 45° SE 17:02:04 10° ENE daylight
06 Oct - 18:33:14 10° WNW 18:35:35 18° NNW 18:37:56 10° NNE daylight
06 Oct - 23:26:21 10° NNW 23:28:47 19° NNE 23:31:12 10° ENE night (unlit)
07 Oct - 01:02:17 10° WNW 01:05:24 43° SW 01:08:31 10° SSE night (unlit)
07 Oct - 16:04:18 10° S 16:06:50 21° SE 16:09:22 10° ENE daylight
07 Oct - 17:40:15 10° W 17:43:10 30° NW 17:46:06 10° NNE daylight
07 Oct - 22:34:50 10° N 22:36:18 12° NNE 22:37:46 10° NE night (unlit)
08 Oct - 00:09:56 10° NW 00:13:13 84° NE 00:16:28 10° SE night (unlit)
08 Oct - 15:14:22 10° SE 15:14:47 10° SE 15:15:13 10° ESE daylight
08 Oct - 16:47:39 10° WSW 16:50:51 60° NW 16:54:03 10° NE daylight
08 Oct - 18:27:14 10° NW 18:27:53 10° NNW 18:28:33 10° N daylight
08 Oct - 23:17:49 10° NW 23:20:55 39° NE 23:24:01 10° ESE night (unlit)
09 Oct - 00:55:04 10° W 00:57:09 16° SW 00:59:14 10° SSW night (unlit)
09 Oct - 15:55:24 10° SW 15:58:36 61° SE 16:01:49 10° NE daylight
09 Oct - 17:33:17 10° WNW 17:35:20 16° NNW 17:37:24 10° NNE daylight
09 Oct - 22:25:52 10° NNW 22:28:32 22° NNE 22:31:11 10° E night (unlit)
